Martha's Vineyard, MA

5:33 AM EDT on April 20, 2018 (GMT -0400)
Martha's Vineyard

Weather History for KMVY - April, 2014

Change the Weather History Date:

Thursday, April 10, 2014

  Actual Average Record
Temperature  
Mean Temperature 37 °F -  
Max Temperature 51 °F 51 °F 67 °F (1970)
Min Temperature 24 °F 34 °F 21 °F (1954)
Degree Days  
Heating Degree Days 28    
Moisture  
Dew Point 26 °F    
Average Humidity 54    
Maximum Humidity 80    
Minimum Humidity 28    
Precipitation  
Precipitation 0.00 in - - ()
Sea Level Pressure  
Sea Level Pressure 30.14 in    
Wind  
Wind Speed 12 mph (SW)    
Max Wind Speed 23 mph    
Max Gust Speed 31 mph    
Visibility 10 miles    
Events      
Averages and records for this station are not official NWS values.
T = Trace of Precipitation, MM = Missing Value Source: NWS Daily Summary

Daily Weather History Graph

Daily Weather History Graph

Search for Another Location

Airport or City:

Astronomy

Apr. 10, 2014 Rise Set
Actual Time 6:10 AM EDT 7:17 PM EDT
Civil Twilight 5:42 AM EDT 7:45 PM EDT
Nautical Twilight 5:08 AM EDT 8:19 PM EDT
Astronomical Twilight 4:33 AM EDT 8:55 PM EDT
Moon 2:55 PM EDT (4/10) 3:34 AM EDT (4/10)
Length of Visible Light 14h 03m
Length of Day
13h 06m
Waxing Gibbous, 79% of the Moon is Illuminated
Apr 10
Waxing Gibbous
Apr 15
Full
Apr 22
Last Quarter
Apr 29
New
May 6
First Quarter

Hourly Weather History & Observations

Time (EDT) Temp. Windchill Dew Point Humidity Pressure Visibility Wind Dir Wind Speed Gust Speed Precip Events Conditions
12:53 AM 42.1 °F 35.7 °F 16.0 °F 35% 29.99 in 10.0 mi NNW 11.5 mph - N/A   Clear
1:53 AM 41.0 °F 34.3 °F 14.0 °F 33% 30.01 in 10.0 mi NNW 11.5 mph - N/A   Clear
2:53 AM 37.0 °F 31.6 °F 15.1 °F 41% 30.03 in 10.0 mi NW 6.9 mph - N/A   Clear
3:53 AM 33.1 °F 28.7 °F 17.1 °F 52% 30.05 in 10.0 mi NW 4.6 mph - N/A   Clear
4:53 AM 26.1 °F 19.4 °F 15.1 °F 63% 30.09 in 10.0 mi WNW 5.8 mph - N/A   Clear
5:53 AM 24.1 °F 18.2 °F 17.1 °F 75% 30.12 in 10.0 mi West 4.6 mph - N/A   Clear
6:53 AM 28.0 °F 24.2 °F 19.0 °F 69% 30.15 in 10.0 mi West 3.5 mph - N/A   Clear
7:53 AM 41.0 °F 37.1 °F 24.1 °F 51% 30.18 in 10.0 mi South 5.8 mph - N/A   Clear
8:53 AM 46.0 °F 41.0 °F 27.0 °F 47% 30.20 in 10.0 mi SSW 10.4 mph - N/A   Clear
10:53 AM 50.0 °F - 18.0 °F 28% 30.21 in 10.0 mi SSW 18.4 mph - N/A   Clear
11:53 AM 50.0 °F - 19.0 °F 29% 30.21 in 10.0 mi SW 17.3 mph 26.5 mph N/A   Clear
12:53 PM 50.0 °F - 23.0 °F 35% 30.22 in 10.0 mi SSW 23.0 mph 28.8 mph N/A   Clear
1:53 PM 50.0 °F - 23.0 °F 35% 30.22 in 10.0 mi SW 21.9 mph 27.6 mph N/A   Clear
2:53 PM 50.0 °F - 28.9 °F 44% 30.20 in 10.0 mi SSW 19.6 mph 31.1 mph N/A   Clear
3:53 PM 48.9 °F - 30.9 °F 50% 30.19 in 10.0 mi SSW 20.7 mph 29.9 mph N/A   Clear
4:53 PM 48.0 °F - 32.0 °F 54% 30.17 in 10.0 mi SSW 19.6 mph 29.9 mph N/A   Clear
5:53 PM 46.9 °F - 34.0 °F 61% 30.15 in 10.0 mi SW 19.6 mph 28.8 mph N/A   Clear
6:53 PM 44.1 °F 36.8 °F 34.0 °F 68% 30.14 in 10.0 mi SSW 16.1 mph - N/A   Clear
7:53 PM 44.1 °F 36.5 °F 35.1 °F 71% 30.13 in 10.0 mi SSW 17.3 mph - N/A   Clear
8:53 PM 44.1 °F 37.7 °F 36.0 °F 73% 30.14 in 10.0 mi SSW 12.7 mph - N/A   Clear
9:53 PM 46.0 °F 38.8 °F 37.9 °F 73% 30.13 in 10.0 mi SSW 18.4 mph - N/A   Clear
10:53 PM 46.0 °F 40.2 °F 39.0 °F 76% 30.12 in 10.0 mi SSW 12.7 mph - N/A   Clear
11:53 PM 46.9 °F - 41.0 °F 80% 30.09 in 10.0 mi SSW 18.4 mph 27.6 mph N/A   Clear